[[{"header":{"parameterUnit":"m.s-1","parameterCategory":1,"la1":30.2991,"la2":30.254,"lo1":-89.0895,"lo2":-89.0444,"dy":0.0017,"dx":0.0017,"nx":28,"ny":28,"refTime":"2025-08-16T09:00:00:Z","depth":0,"parameterNumber":2,"parameterNumberName":"U-component_of_WINDS"},"data":[0,0,0,0,0,0,0,0,0,0,0,0,0,0,0,0,0,0,0,0,0,0,0,0,0,0,0,0,0,0,0,0,0,0,0,0,0,0,0,0,0,0,0,0,0,0,0,0,0,0,0,0,0,0,0,0,0,0,-1.176,-1.1761,0,-1.1793,-1.1794,-1.1794,-1.1736,-1.1734,-1.1732,-1.173,-1.1764,-1.1767,-1.177,0,0,0,0,0,0,0,0,0,0,0,0,0,-1.1646,-1.1648,-1.176,-1.1761,-1.1761,-1.1793,-1.1794,-1.1794,-1.1736,-1.1734,-1.1731,-1.1729,-1.1763,-1.1767,-1.177,0,0,0,0,0,0,0,0,0,0,0,0,0,-1.1689,-1.1649,-1.176,-1.1736,-1.1734,-1.1793,-1.1794,-1.1794,-1.1736,-1.1734,-1.1731,-1.1728,-1.1762,-1.1766,-1.177,-1.1855,0,0,-1.1783,-1.1785,0,0,0,0,0,0,0,0,-1.1687,-1.1693,-1.1739,-1.1738,-1.1736,-1.1757,-1.1766,-1.1815,-1.1737,-1.1736,-1.173,-1.1726,-1.1764,-1.1768,-1.1781,-1.1857,-1.1858,-1.1783,-1.1786,-1.1788,-1.1789,0,0,0,0,0,0,0,-1.1684,-1.1692,-1.1773,-1.174,-1.1738,-1.1723,-1.1726,-1.1775,-1.1766,-1.1735,-1.1731,-1.1736,-1.1763,-1.1777,-1.1781,-1.1859,-1.1783,-1.1787,-1.179,-1.1791,-1.2005,-1.2008,0,0,0,0,0,0,-1.1684,-1.1689,-1.1772,-1.1774,-1.1703,-1.1728,-1.1731,-1.1753,-1.1765,-1.1764,-1.1738,-1.1733,-1.1771,-1.1777,-1.1782,-1.1882,-1.1788,-1.1792,-1.1794,-1.2002,-1.2006,-1.2009,0,0,0,0,0,0,-1.1682,-1.1692,-1.1771,-1.1731,-1.174,-1.1733,-1.1759,-1.1756,-1.177,-1.1768,-1.1766,-1.1755,-1.1769,-1.1776,-1.1837,-1.1882,-1.1793,-1.1797,-1.1998,-1.2003,-1.2007,-1.2082,0,0,0,0,0,0,-1.1679,-1.1691,-1.1724,-1.1732,-1.1742,-1.1826,-1.1761,-1.1758,-1.1777,-1.177,-1.1782,-1.1782,-1.1768,-1.1831,-1.1841,-1.1886,-1.18,-1.1994,-1.2,-1.2006,-1.2076,-1.2089,-1.21,0,0,0,0,0,-1.1675,-1.1744,-1.1725,-1.1736,-1.1782,-1.1828,-1.1834,-1.1817,-1.1781,-1.1813,-1.1812,-1.1781,-1.1876,-1.1838,-1.1849,-1.1896,-1.1991,-1.1998,-1.2005,-1.207,-1.2086,-1.21,0,0,0,0,0,0,-1.1741,-1.1744,-1.1724,-1.1798,-1.1813,-1.1818,-1.1859,-1.1834,-1.186,-1.1853,-1.183,-1.1833,-1.1899,-1.1903,-1.1861,-1.1978,-1.1927,-1.1937,-1.1973,-1.1988,-1.2,-1.1998,-1.1804,0,0,0,0,0,-1.1764,-1.1801,-1.1802,-1.1867,-1.1876,-1.1866,-1.1885,-1.187,-1.1885,-1.1892,-1.1895,-1.1911,-1.1944,-1.1966,-1.1997,-1.2076,-1.2078,-1.2113,-1.2126,-1.2136,-1.2145,-1.2187,-1.2202,-1.2033,-1.2033,-1.2033,0,0,-1.1812,-1.1819,-1.1844,-1.188,-1.1891,-1.1929,-1.1872,-1.1916,-1.1944,-1.1898,-1.1956,-1.1959,-1.1975,-1.2045,-1.2076,-1.2051,-1.2192,-1.2145,-1.2153,-1.2156,-1.2196,-1.2212,-1.2226,-1.2038,-1.2037,-1.2036,0,0,-1.192,-1.1929,-1.1984,-1.1995,-1.2011,-1.2004,-1.2017,-1.2026,-1.2026,-1.2083,-1.2049,-1.2083,-1.2141,-1.2153,-1.2168,-1.228,-1.2252,-1.229,-1.2355,-1.2396,-1.2409,-1.2421,-1.2461,-1.2475,-1.2299,-1.2299,-1.2299,0,-1.1978,-1.2036,-1.2015,-1.2061,-1.2078,-1.2038,-1.2093,-1.2105,-1.213,-1.2143,-1.2114,-1.2185,-1.2193,-1.2266,-1.2293,-1.2306,-1.232,-1.2289,-1.2409,-1.242,-1.2431,-1.2469,-1.2484,-1.2303,-1.2303,-1.2302,-1.2302,0,-1.2106,-1.2147,-1.2189,-1.2214,-1.2236,-1.2286,-1.2273,-1.2297,-1.228,-1.2276,-1.2335,-1.2343,-1.2374,-1.239,-1.2374,-1.2461,-1.2444,-1.2413,-1.2361,-1.2452,-1.2487,-1.2502,-1.231,-1.2308,-1.2307,-1.2306,0,0,-1.2258,-1.227,-1.2286,-1.2297,-1.2311,-1.2342,-1.239,-1.242,-1.2442,-1.246,-1.25,-1.255,-1.252,-1.2536,-1.2521,-1.2557,-1.2645,-1.2521,-1.2521,-1.2544,-1.2741,-1.2765,-1.2782,-1.2627,-1.263,-1.2632,-1.2739,0,-1.2365,-1.2448,-1.2431,-1.2513,-1.2549,-1.2511,-1.2553,-1.2567,-1.2564,-1.2595,-1.2592,-1.2627,-1.2586,-1.2595,-1.2629,-1.2627,-1.2684,-1.2619,-1.2664,-1.2666,-1.2661,-1.28,-1.2826,-1.2927,-1.2753,-1.2755,-1.2757,0,-1.2502,-1.2525,-1.2611,-1.2618,-1.2633,-1.2671,-1.2697,-1.2727,-1.2741,-1.2737,-1.2754,-1.2732,-1.278,-1.2727,-1.2793,-1.2749,-1.2766,-1.2768,-1.2771,-1.2775,-1.2717,-1.2808,-1.2959,-1.2974,-1.2778,-1.2776,-1.2775,0,-1.2603,-1.2656,-1.2714,-1.2724,-1.2735,-1.2763,-1.2768,-1.278,-1.2799,-1.2821,-1.2833,-1.2861,-1.2877,-1.2899,-1.2885,-1.2848,-1.2953,-1.2899,-1.295,-1.2951,-1.2975,-1.2973,-1.3131,-1.2985,-1.2985,-1.2985,-1.2985,0,-1.2725,-1.2779,-1.276,-1.2796,-1.2855,-1.2834,-1.2893,-1.2894,-1.2904,-1.2939,-1.2908,-1.2941,-1.292,-1.2952,-1.2941,-1.2997,-1.3004,-1.3002,-1.2998,-1.3005,-1.3005,-1.3016,-1.3009,-1.2989,-1.2988,-1.2987,-1.2987,0,-1.2849,-1.2839,-1.2899,-1.2904,-1.2907,-1.295,-1.2954,-1.2987,-1.2982,-1.3026,-1.3036,-1.3028,-1.3063,-1.3051,-1.309,-1.3082,-1.3153,-1.3141,-1.3149,-1.3146,-1.3197,-1.3193,-1.3367,-1.3389,-1.323,-1.3231,-1.3233,0,-1.2928,-1.2968,-1.2977,-1.2999,-1.3007,-1.3041,-1.306,-1.3041,-1.3062,-1.3081,-1.3112,-1.3145,-1.317,-1.3229,-1.3226,-1.3256,-1.3243,-1.3303,-1.3248,-1.3253,-1.3244,-1.3242,-1.3246,-1.3314,-1.3316,-1.3317,-1.3318,0,-1.3069,-1.3061,-1.309,-1.3117,-1.3141,-1.3161,-1.3179,-1.3198,-1.3179,-1.3205,-1.3241,-1.3261,-1.33,-1.3333,-1.3359,-1.3364,-1.3339,-1.3335,-1.3349,-1.3356,-1.3359,-1.3358,-1.3179,-1.3332,-1.333,-1.3329,-1.3329,-1.3328,-1.3172,-1.3206,-1.3218,-1.3251,-1.3262,-1.3279,-1.331,-1.3309,-1.3338,-1.3368,-1.3355,-1.3397,-1.3409,-1.3441,-1.3451,-1.3483,-1.346,-1.3479,-1.3484,-1.3489,-1.3496,-1.3354,-1.3487,-1.3487,-1.3487,-1.3486,-1.3486,0,-1.3311,-1.3317,-1.3347,-1.3373,-1.3399,-1.3371,-1.3389,-1.3413,-1.345,-1.3463,-1.3489,-1.353,-1.3562,-1.3562,-1.3591,-1.3617,-1.3606,-1.3625,-1.3623,-1.3625,-1.3515,-1.35,-1.3634,-1.3634,-1.3634,-1.3634,-1.3634,-1.3634,-1.3387,-1.3443,-1.3437,-1.3498,-1.3502,-1.3543,-1.3555,-1.3571,-1.3582,-1.3629,-1.3655,-1.3655,-1.3663,-1.3692,-1.372,-1.3719,-1.3732,-1.3756,-1.375,-1.3648,-1.3633,-1.3619,-1.3605,-1.3759,-1.3759,-1.3858,-1.3859,-1.3859]},{"header":{"parameterUnit":"m.s-1","parameterCategory":1,"la1":30.2991,"la2":30.254,"lo1":-89.0895,"lo2":-89.0444,"dy":0.0017,"dx":0.0017,"nx":28,"ny":28,"refTime":"2025-08-16T09:00:00:Z","depth":0,"parameterNumber":3,"parameterNumberName":"V-component_of_WINDS"},"data":[0,0,0,0,0,0,0,0,0,0,0,0,0,0,0,0,0,0,0,0,0,0,0,0,0,0,0,0,0,0,0,0,0,0,0,0,0,0,0,0,0,0,0,0,0,0,0,0,0,0,0,0,0,0,0,0,0,0,-1.6951,-1.695,0,-1.685,-1.6849,-1.6848,-1.6768,-1.6767,-1.6766,-1.6766,-1.6659,-1.6657,-1.6655,0,0,0,0,0,0,0,0,0,0,0,0,0,-1.7069,-1.7067,-1.6951,-1.695,-1.6949,-1.685,-1.6849,-1.6848,-1.6768,-1.6767,-1.6766,-1.6765,-1.6659,-1.6657,-1.6654,0,0,0,0,0,0,0,0,0,0,0,0,0,-1.6998,-1.7067,-1.6951,-1.6897,-1.6891,-1.6851,-1.6849,-1.6847,-1.6768,-1.6767,-1.6766,-1.6765,-1.666,-1.6657,-1.6654,-1.6658,0,0,-1.6644,-1.6643,0,0,0,0,0,0,0,0,-1.7002,-1.6994,-1.6906,-1.6901,-1.6894,-1.6821,-1.6851,-1.6784,-1.6769,-1.6815,-1.6766,-1.6764,-1.6713,-1.6706,-1.6689,-1.6653,-1.6648,-1.6644,-1.6642,-1.6641,-1.664,0,0,0,0,0,0,0,-1.7007,-1.6997,-1.6911,-1.6905,-1.6898,-1.6876,-1.6865,-1.6838,-1.6772,-1.6811,-1.6805,-1.6794,-1.671,-1.6692,-1.6686,-1.6647,-1.6644,-1.6641,-1.6639,-1.6638,-1.6604,-1.6605,0,0,0,0,0,0,-1.7021,-1.7002,-1.6914,-1.6908,-1.6946,-1.6875,-1.6862,-1.6845,-1.6772,-1.676,-1.6795,-1.6791,-1.6698,-1.669,-1.6682,-1.6679,-1.6641,-1.6638,-1.6636,-1.6603,-1.6604,-1.6605,0,0,0,0,0,0,-1.7024,-1.7014,-1.6918,-1.6953,-1.694,-1.6874,-1.6856,-1.6844,-1.6827,-1.676,-1.6747,-1.679,-1.6697,-1.6686,-1.6664,-1.6675,-1.6636,-1.6633,-1.6602,-1.6604,-1.6605,-1.6676,0,0,0,0,0,0,-1.7028,-1.7016,-1.7018,-1.6954,-1.6938,-1.6904,-1.6857,-1.6843,-1.6822,-1.6815,-1.6752,-1.674,-1.6695,-1.6669,-1.6661,-1.667,-1.6631,-1.6601,-1.6603,-1.6604,-1.6672,-1.668,-1.6686,0,0,0,0,0,-1.7032,-1.7042,-1.7019,-1.7008,-1.694,-1.6905,-1.6895,-1.6845,-1.6823,-1.6824,-1.678,-1.6742,-1.6675,-1.6667,-1.6657,-1.6665,-1.66,-1.6602,-1.6604,-1.6669,-1.6678,-1.6686,0,0,0,0,0,0,-1.7108,-1.7033,-1.7006,-1.6996,-1.6957,-1.6892,-1.6891,-1.6856,-1.6822,-1.6817,-1.6754,-1.674,-1.6724,-1.6692,-1.6685,-1.6663,-1.6632,-1.6633,-1.6685,-1.6693,-1.67,-1.6707,-1.6628,0,0,0,0,0,-1.7124,-1.7104,-1.7038,-1.7035,-1.7017,-1.6958,-1.694,-1.6904,-1.6862,-1.6845,-1.68,-1.6758,-1.6727,-1.6708,-1.6676,-1.6667,-1.665,-1.6667,-1.6674,-1.668,-1.6681,-1.667,-1.6676,-1.6613,-1.6613,-1.6613,0,0,-1.7156,-1.7112,-1.7103,-1.7049,-1.7015,-1.6993,-1.6945,-1.6924,-1.6906,-1.6841,-1.6817,-1.6782,-1.6731,-1.6715,-1.6705,-1.6688,-1.6694,-1.6683,-1.6688,-1.6686,-1.6673,-1.6679,-1.6685,-1.6614,-1.6614,-1.6614,0,0,-1.7203,-1.7169,-1.7162,-1.7128,-1.7077,-1.7037,-1.7036,-1.6974,-1.6949,-1.6924,-1.6873,-1.685,-1.6799,-1.6764,-1.674,-1.677,-1.6733,-1.6761,-1.6797,-1.6787,-1.6792,-1.6796,-1.6805,-1.6809,-1.6762,-1.6762,-1.6763,0,-1.7249,-1.7216,-1.7162,-1.7144,-1.712,-1.706,-1.7051,-1.7021,-1.6962,-1.6946,-1.6927,-1.686,-1.6821,-1.6794,-1.6802,-1.6784,-1.6778,-1.6768,-1.6796,-1.68,-1.6803,-1.681,-1.6814,-1.6766,-1.6766,-1.6765,-1.6765,0,-1.7274,-1.7251,-1.7251,-1.7196,-1.7172,-1.7159,-1.71,-1.7082,-1.7047,-1.7008,-1.6981,-1.6933,-1.6889,-1.688,-1.6846,-1.6847,-1.6837,-1.6809,-1.6776,-1.6813,-1.6819,-1.6822,-1.6771,-1.677,-1.6769,-1.6768,0,0,-1.7368,-1.7281,-1.7282,-1.7255,-1.7193,-1.7174,-1.7155,-1.7113,-1.7098,-1.7058,-1.704,-1.6996,-1.6968,-1.6941,-1.6901,-1.6893,-1.6917,-1.6865,-1.6862,-1.6875,-1.6912,-1.6934,-1.6939,-1.6892,-1.6893,-1.6893,-1.6916,0,-1.7404,-1.737,-1.732,-1.7302,-1.7279,-1.722,-1.7203,-1.7162,-1.7125,-1.7098,-1.7055,-1.7025,-1.6991,-1.6973,-1.6963,-1.6917,-1.6924,-1.6915,-1.6872,-1.6871,-1.6887,-1.6942,-1.6965,-1.699,-1.6918,-1.6919,-1.6919,0,-1.7442,-1.7406,-1.7387,-1.7324,-1.7312,-1.7299,-1.7254,-1.723,-1.718,-1.7153,-1.7121,-1.7078,-1.7053,-1.7024,-1.6987,-1.6982,-1.6961,-1.6935,-1.6935,-1.6928,-1.6898,-1.6936,-1.6997,-1.7,-1.6922,-1.6922,-1.6922,0,-1.7511,-1.7457,-1.7437,-1.7416,-1.7343,-1.7335,-1.7304,-1.7253,-1.723,-1.719,-1.7174,-1.7131,-1.7108,-1.7075,-1.702,-1.7004,-1.6988,-1.6955,-1.6963,-1.6964,-1.6962,-1.6963,-1.7019,-1.695,-1.695,-1.695,-1.695,0,-1.7556,-1.7546,-1.7467,-1.7455,-1.744,-1.7381,-1.7368,-1.7331,-1.7286,-1.7263,-1.7209,-1.7189,-1.7119,-1.7089,-1.7046,-1.7021,-1.7011,-1.6986,-1.6975,-1.6991,-1.6994,-1.6976,-1.6972,-1.6951,-1.6951,-1.6951,-1.6951,0,-1.7631,-1.7578,-1.7552,-1.7485,-1.7467,-1.7459,-1.74,-1.7385,-1.7343,-1.7315,-1.7305,-1.7239,-1.7201,-1.7143,-1.7088,-1.7059,-1.704,-1.7022,-1.7057,-1.705,-1.706,-1.706,-1.7107,-1.7109,-1.7041,-1.7041,-1.7042,0,-1.7663,-1.7654,-1.7585,-1.7567,-1.7538,-1.7509,-1.7484,-1.7424,-1.7401,-1.7342,-1.7333,-1.7291,-1.7255,-1.7196,-1.7142,-1.7099,-1.7078,-1.7097,-1.7071,-1.7087,-1.7076,-1.7077,-1.7075,-1.7104,-1.7105,-1.7106,-1.7107,0,-1.7726,-1.7699,-1.7667,-1.7625,-1.7598,-1.7562,-1.7522,-1.751,-1.744,-1.7416,-1.7377,-1.7349,-1.7292,-1.725,-1.7199,-1.7163,-1.7123,-1.7115,-1.7114,-1.713,-1.7151,-1.7138,-1.7073,-1.7114,-1.7114,-1.7113,-1.7113,-1.7112,-1.7779,-1.7767,-1.7716,-1.7681,-1.7645,-1.7609,-1.7591,-1.7546,-1.7513,-1.7463,-1.7429,-1.7391,-1.7338,-1.7265,-1.7232,-1.72,-1.7182,-1.7182,-1.7181,-1.7182,-1.7187,-1.7156,-1.719,-1.719,-1.7189,-1.7189,-1.7189,0,-1.7837,-1.7801,-1.7769,-1.7716,-1.7688,-1.7653,-1.7607,-1.7585,-1.7553,-1.7508,-1.7473,-1.7426,-1.7385,-1.7326,-1.7279,-1.7264,-1.7244,-1.7254,-1.7254,-1.7246,-1.7206,-1.7211,-1.7271,-1.7271,-1.7271,-1.7271,-1.7271,-1.7271,-1.7864,-1.7841,-1.7808,-1.7765,-1.7728,-1.7692,-1.7669,-1.7634,-1.7597,-1.7549,-1.7514,-1.7476,-1.7425,-1.7373,-1.7332,-1.7316,-1.73,-1.7316,-1.7293,-1.7257,-1.7249,-1.7242,-1.7246,-1.7313,-1.7313,-1.7336,-1.7336,-1.7336]}]]